owner,sensor,date,latitude,longitude,vertical_datum,direction_of_sea_water_velocity,sea_water_speed,upward_sea_water_velocity,qcFlag 
TABS,ioos:station:wmo:42050:1,2009-04-01T00:00:00Z,28.8425,-94.2433,2.0,239.6182792,30.37053836,-99999.0,'11111222,11111222,99999999' 
TABS,ioos:station:wmo:42050:1,2009-04-01T00:30:00Z,28.8425,-94.2433,2.0,245.7907423,31.87302621,-99999.0,'11111222,11111222,99999999' 
TABS,ioos:station:wmo:42050:1,2009-04-01T01:00:00Z,28.8425,-94.2433,2.0,249.2504984,31.95241462,-99999.0,'11111222,11111222,99999999' 
TABS,ioos:station:wmo:42050:1,2009-04-01T01:30:00Z,28.8425,-94.2433,2.0,251.2473748,31.97744205,-99999.0,'11111222,11111222,99999999' 
TABS,ioos:station:wmo:42050:1,2009-04-01T02:00:00Z,28.8425,-94.2433,2.0,256.0059042,32.6695577,-99999.0,'11111222,11111222,99999999' 
TABS,ioos:station:wmo:42050:1,2009-04-01T02:30:00Z,28.8425,-94.2433,2.0,262.0625878,30.63345394,-99999.0,'11111222,11111222,99999999' 
TABS,ioos:station:wmo:42050:1,2009-04-01T03:00:00Z,28.8425,-94.2433,2.0,268.3895937,29.54166211,-99999.0,'11111222,11111222,99999999' 
TABS,ioos:station:wmo:42050:1,2009-04-01T03:30:00Z,28.8425,-94.2433,2.0,273.8466039,29.66681816,-99999.0,'11111222,11111222,99999999' 
TABS,ioos:station:wmo:42050:1,2009-04-01T04:00:00Z,28.8425,-94.2433,2.0,269.72628,29.3503339,-99999.0,'11111222,11111222,99999999' 
TABS,ioos:station:wmo:42050:1,2009-04-01T04:30:00Z,28.8425,-94.2433,2.0,268.6445854,27.48768633,-99999.0,'11111222,11111222,99999999' 
TABS,ioos:station:wmo:42050:1,2009-04-01T05:00:00Z,28.8425,-94.2433,2.0,272.254334,34.32655677,-99999.0,'11111222,11111222,99999999' 
TABS,ioos:station:wmo:42050:1,2009-04-01T05:30:00Z,28.8425,-94.2433,2.0,274.0398341,35.3478104,-99999.0,'11111222,11111222,99999999' 
TABS,ioos:station:wmo:42050:1,2009-04-01T06:00:00Z,28.8425,-94.2433,2.0,280.6250663,35.09160868,-99999.0,'11111222,11111222,99999999' 
TABS,ioos:station:wmo:42050:1,2009-04-01T06:30:00Z,28.8425,-94.2433,2.0,288.6195923,32.44829888,-99999.0,'11111222,11111222,99999999' 
TABS,ioos:station:wmo:42050:1,2009-04-01T07:00:00Z,28.8425,-94.2433,2.0,291.152461,31.95279174,-99999.0,'11111222,11111222,99999999' 
TABS,ioos:station:wmo:42050:1,2009-04-01T07:30:00Z,28.8425,-94.2433,2.0,298.9460407,30.14585378,-99999.0,'11111222,11111222,99999999' 
TABS,ioos:station:wmo:42050:1,2009-04-01T08:00:00Z,28.8425,-94.2433,2.0,294.4189702,28.0599804,-99999.0,'11111222,11111222,99999999' 
TABS,ioos:station:wmo:42050:1,2009-04-01T08:30:00Z,28.8425,-94.2433,2.0,301.0224469,25.26346967,-99999.0,'11111222,11111222,99999999' 
TABS,ioos:station:wmo:42050:1,2009-04-01T09:00:00Z,28.8425,-94.2433,2.0,302.5315052,23.44920041,-99999.0,'11111222,11111222,99999999' 
TABS,ioos:station:wmo:42050:1,2009-04-01T09:30:00Z,28.8425,-94.2433,2.0,297.7263476,22.95571389,-99999.0,'11111222,11111222,99999999' 
TABS,ioos:station:wmo:42050:1,2009-04-01T10:00:00Z,28.8425,-94.2433,2.0,302.2552574,23.36575486,-99999.0,'11111222,11111222,99999999' 
TABS,ioos:station:wmo:42050:1,2009-04-01T10:30:00Z,28.8425,-94.2433,2.0,301.2282209,21.95033713,-99999.0,'11111222,11111222,99999999' 
TABS,ioos:station:wmo:42050:1,2009-04-01T11:00:00Z,28.8425,-94.2433,2.0,304.7307043,19.55363138,-99999.0,'11111222,11111222,99999999' 
TABS,ioos:station:wmo:42050:1,2009-04-01T11:30:00Z,28.8425,-94.2433,2.0,307.36876,18.84871348,-99999.0,'11111222,11111222,99999999' 
TABS,ioos:station:wmo:42050:1,2009-04-01T12:00:00Z,28.8425,-94.2433,2.0,300.6594473,15.15897424,-99999.0,'11111222,11111222,99999999' 
TABS,ioos:station:wmo:42050:1,2009-04-01T12:30:00Z,28.8425,-94.2433,2.0,307.1426343,12.62014263,-99999.0,'11111222,11111222,99999999' 
TABS,ioos:station:wmo:42050:1,2009-04-01T13:00:00Z,28.8425,-94.2433,2.0,291.1148619,10.6875348,-99999.0,'11111222,11111222,99999999' 
TABS,ioos:station:wmo:42050:1,2009-04-01T13:30:00Z,28.8425,-94.2433,2.0,293.7810734,13.44122018,-99999.0,'11111222,11111222,99999999' 
TABS,ioos:station:wmo:42050:1,2009-04-01T14:00:00Z,28.8425,-94.2433,2.0,298.1715723,14.67884532,-99999.0,'11111222,11111222,99999999' 
TABS,ioos:station:wmo:42050:1,2009-04-01T14:30:00Z,28.8425,-94.2433,2.0,300.510587,14.3,-99999.0,'11111222,11111222,99999999' 
TABS,ioos:station:wmo:42050:1,2009-04-01T15:00:00Z,28.8425,-94.2433,2.0,294.0823975,13.62597519,-99999.0,'11111222,11111222,99999999' 
TABS,ioos:station:wmo:42050:1,2009-04-01T15:30:00Z,28.8425,-94.2433,2.0,291.5401146,11.38509991,-99999.0,'11111222,11111222,99999999' 
TABS,ioos:station:wmo:42050:1,2009-04-01T16:00:00Z,28.8425,-94.2433,2.0,279.3284235,13.32621852,-99999.0,'11111222,11111222,99999999' 
TABS,ioos:station:wmo:42050:1,2009-04-01T16:30:00Z,28.8425,-94.2433,2.0,277.6327617,12.0467257,-99999.0,'11111222,11111222,99999999' 
TABS,ioos:station:wmo:42050:1,2009-04-01T17:00:00Z,28.8425,-94.2433,2.0,276.5801105,9.774379776,-99999.0,'11133222,11111222,99999999' 
TABS,ioos:station:wmo:42050:1,2009-04-01T17:30:00Z,28.8425,-94.2433,2.0,239.9503412,6.769911373,-99999.0,'11133222,11111222,99999999' 
TABS,ioos:station:wmo:42050:1,2009-04-01T18:00:00Z,28.8425,-94.2433,2.0,260.7927193,11.0625178,-99999.0,'11111222,11111222,99999999' 
TABS,ioos:station:wmo:42050:1,2009-04-01T18:30:00Z,28.8425,-94.2433,2.0,251.2311414,12.49437073,-99999.0,'11111222,11111222,99999999' 
TABS,ioos:station:wmo:42050:1,2009-04-01T19:00:00Z,28.8425,-94.2433,2.0,237.0422313,9.760747922,-99999.0,'11133222,11111222,99999999' 
TABS,ioos:station:wmo:42050:1,2009-04-01T19:30:00Z,28.8425,-94.2433,2.0,238.8171388,15.72138989,-99999.0,'11111222,11111222,99999999' 
TABS,ioos:station:wmo:42050:1,2009-04-01T20:00:00Z,28.8425,-94.2433,2.0,244.11628,8.26956468,-99999.0,'11133222,11111222,99999999' 
TABS,ioos:station:wmo:42050:1,2009-04-01T20:30:00Z,28.8425,-94.2433,2.0,246.3955192,11.68787834,-99999.0,'11111222,11111222,99999999' 
TABS,ioos:station:wmo:42050:1,2009-04-01T21:00:00Z,28.8425,-94.2433,2.0,229.3021247,12.91280372,-99999.0,'11111222,11111222,99999999' 
TABS,ioos:station:wmo:42050:1,2009-04-01T21:30:00Z,28.8425,-94.2433,2.0,233.1125721,13.3280006,-99999.0,'11111222,11111222,99999999' 
TABS,ioos:station:wmo:42050:1,2009-04-01T22:00:00Z,28.8425,-94.2433,2.0,231.6196424,13.43266541,-99999.0,'11111222,11111222,99999999' 
TABS,ioos:station:wmo:42050:1,2009-04-01T22:30:00Z,28.8425,-94.2433,2.0,236.7149156,12.15378542,-99999.0,'11111222,11111222,99999999' 
TABS,ioos:station:wmo:42050:1,2009-04-01T23:00:00Z,28.8425,-94.2433,2.0,235.3866362,14.1189518,-99999.0,'11111222,11111222,99999999' 
TABS,ioos:station:wmo:42050:1,2009-04-01T23:30:00Z,28.8425,-94.2433,2.0,240.9383519,16.63424179,-99999.0,'11111222,11111222,99999999' 
TABS,ioos:station:wmo:42050:1,2009-04-02T00:00:00Z,28.8425,-94.2433,2.0,226.4754645,17.84622369,-99999.0,'11111222,11111222,99999999' 
TABS,ioos:station:wmo:42050:1,2009-04-02T00:30:00Z,28.8425,-94.2433,2.0,229.2766917,22.47079215,-99999.0,'11111222,11111222,99999999' 
TABS,ioos:station:wmo:42050:1,2009-04-02T01:00:00Z,28.8425,-94.2433,2.0,226.5742392,22.38838315,-99999.0,'11111222,11111222,99999999' 
TABS,ioos:station:wmo:42050:1,2009-04-02T01:30:00Z,28.8425,-94.2433,2.0,229.5808409,24.52302795,-99999.0,'11111222,11111222,99999999' 
TABS,ioos:station:wmo:42050:1,2009-04-02T02:00:00Z,28.8425,-94.2433,2.0,224.3129861,21.82995419,-99999.0,'11111222,11111222,99999999' 
TABS,ioos:station:wmo:42050:1,2009-04-02T02:30:00Z,28.8425,-94.2433,2.0,218.7425927,26.92438486,-99999.0,'11111222,11111222,99999999' 
TABS,ioos:station:wmo:42050:1,2009-04-02T03:00:00Z,28.8425,-94.2433,2.0,228.8206456,23.45028998,-99999.0,'11111222,11111222,99999999' 
TABS,ioos:station:wmo:42050:1,2009-04-02T03:30:00Z,28.8425,-94.2433,2.0,228.631684,27.23588809,-99999.0,'11111222,11111222,99999999' 
TABS,ioos:station:wmo:42050:1,2009-04-02T04:00:00Z,28.8425,-94.2433,2.0,233.6767067,28.07527916,-99999.0,'11111222,11111222,99999999' 
TABS,ioos:station:wmo:42050:1,2009-04-02T04:30:00Z,28.8425,-94.2433,2.0,240.8458584,30.29833659,-99999.0,'11111222,11111222,99999999' 
TABS,ioos:station:wmo:42050:1,2009-04-02T05:00:00Z,28.8425,-94.2433,2.0,241.2047507,29.99944333,-99999.0,'11111222,11111222,99999999' 
TABS,ioos:station:wmo:42050:1,2009-04-02T05:30:00Z,28.8425,-94.2433,2.0,238.5924541,30.35787377,-99999.0,'11111222,11111222,99999999' 
TABS,ioos:station:wmo:42050:1,2009-04-02T06:00:00Z,28.8425,-94.2433,2.0,236.7714176,28.55966737,-99999.0,'11111222,11111222,99999999' 
TABS,ioos:station:wmo:42050:1,2009-04-02T06:30:00Z,28.8425,-94.2433,2.0,228.030354,23.80622608,-99999.0,'11111222,11111222,99999999' 
TABS,ioos:station:wmo:42050:1,2009-04-02T07:00:00Z,28.8425,-94.2433,2.0,225.3220193,20.1104351,-99999.0,'11111222,11111222,99999999' 
TABS,ioos:station:wmo:42050:1,2009-04-02T07:30:00Z,28.8425,-94.2433,2.0,230.5913653,20.68229436,-99999.0,'11111222,11111222,99999999' 
TABS,ioos:station:wmo:42050:1,2009-04-02T08:00:00Z,28.8425,-94.2433,2.0,237.9467553,23.0072619,-99999.0,'11111222,11111222,99999999' 
TABS,ioos:station:wmo:42050:1,2009-04-02T08:30:00Z,28.8425,-94.2433,2.0,243.6658527,22.15961417,-99999.0,'11111222,11111222,99999999' 
TABS,ioos:station:wmo:42050:1,2009-04-02T09:00:00Z,28.8425,-94.2433,2.0,241.6194904,19.06086304,-99999.0,'11111222,11111222,99999999' 
TABS,ioos:station:wmo:42050:1,2009-04-02T09:30:00Z,28.8425,-94.2433,2.0,250.8853673,25.07229946,-99999.0,'11111222,11111222,99999999' 
TABS,ioos:station:wmo:42050:1,2009-04-02T10:00:00Z,28.8425,-94.2433,2.0,249.5434945,23.49136437,-99999.0,'11111222,11111222,99999999' 
TABS,ioos:station:wmo:42050:1,2009-04-02T10:30:00Z,28.8425,-94.2433,2.0,249.6219357,24.43948035,-99999.0,'11111222,11111222,99999999' 
TABS,ioos:station:wmo:42050:1,2009-04-02T11:00:00Z,28.8425,-94.2433,2.0,246.2454457,22.34284002,-99999.0,'11111222,11111222,99999999' 
TABS,ioos:station:wmo:42050:1,2009-04-02T11:30:00Z,28.8425,-94.2433,2.0,237.8439858,24.6513955,-99999.0,'11111222,11111222,99999999' 
TABS,ioos:station:wmo:42050:1,2009-04-02T12:00:00Z,28.8425,-94.2433,2.0,243.6978651,23.35821269,-99999.0,'11111222,11111222,99999999' 
TABS,ioos:station:wmo:42050:1,2009-04-02T12:30:00Z,28.8425,-94.2433,2.0,237.8512319,25.05100796,-99999.0,'11111222,11111222,99999999' 
TABS,ioos:station:wmo:42050:1,2009-04-02T13:00:00Z,28.8425,-94.2433,2.0,240.2851057,21.08218679,-99999.0,'11111222,11111222,99999999' 
TABS,ioos:station:wmo:42050:1,2009-04-02T13:30:00Z,28.8425,-94.2433,2.0,233.2476598,24.30005144,-99999.0,'11111222,11111222,99999999' 
TABS,ioos:station:wmo:42050:1,2009-04-02T14:00:00Z,28.8425,-94.2433,2.0,234.260491,21.48618393,-99999.0,'11111222,11111222,99999999' 
TABS,ioos:station:wmo:42050:1,2009-04-02T14:30:00Z,28.8425,-94.2433,2.0,222.3822771,22.29712538,-99999.0,'11111222,11111222,99999999' 
TABS,ioos:station:wmo:42050:1,2009-04-02T15:00:00Z,28.8425,-94.2433,2.0,213.6058678,20.83178821,-99999.0,'11111222,11111222,99999999' 
TABS,ioos:station:wmo:42050:1,2009-04-02T15:30:00Z,28.8425,-94.2433,2.0,202.2370661,18.5496442,-99999.0,'11111222,11111222,99999999' 
TABS,ioos:station:wmo:42050:1,2009-04-02T16:00:00Z,28.8425,-94.2433,2.0,197.8418923,22.61782041,-99999.0,'11111222,11111222,99999999' 
TABS,ioos:station:wmo:42050:1,2009-04-02T16:30:00Z,28.8425,-94.2433,2.0,194.6595272,25.40711121,-99999.0,'11111222,11111222,99999999' 
TABS,ioos:station:wmo:42050:1,2009-04-02T17:00:00Z,28.8425,-94.2433,2.0,200.338004,28.94448479,-99999.0,'11111222,11111222,99999999' 
TABS,ioos:station:wmo:42050:1,2009-04-02T17:30:00Z,28.8425,-94.2433,2.0,199.7948201,28.37678805,-99999.0,'11111222,11111222,99999999' 
TABS,ioos:station:wmo:42050:1,2009-04-02T18:00:00Z,28.8425,-94.2433,2.0,204.6601391,26.50757816,-99999.0,'11111222,11111222,99999999' 
TABS,ioos:station:wmo:42050:1,2009-04-02T18:30:00Z,28.8425,-94.2433,2.0,202.4093499,24.31631757,-99999.0,'11111222,11111222,99999999' 
TABS,ioos:station:wmo:42050:1,2009-04-02T19:00:00Z,28.8425,-94.2433,2.0,204.7623235,22.32253122,-99999.0,'11111222,11111222,99999999' 
TABS,ioos:station:wmo:42050:1,2009-04-02T19:30:00Z,28.8425,-94.2433,2.0,197.4569357,21.86717174,-99999.0,'11111222,11111222,99999999' 
TABS,ioos:station:wmo:42050:1,2009-04-02T20:00:00Z,28.8425,-94.2433,2.0,206.1958039,22.22250436,-99999.0,'11111222,11111222,99999999' 
TABS,ioos:station:wmo:42050:1,2009-04-02T20:30:00Z,28.8425,-94.2433,2.0,211.0793437,22.89682292,-99999.0,'11111222,11111222,99999999' 
TABS,ioos:station:wmo:42050:1,2009-04-02T21:00:00Z,28.8425,-94.2433,2.0,210.0437698,24.46742528,-99999.0,'11111222,11111222,99999999' 
TABS,ioos:station:wmo:42050:1,2009-04-02T21:30:00Z,28.8425,-94.2433,2.0,214.3219425,23.12685884,-99999.0,'11111222,11111222,99999999' 
TABS,ioos:station:wmo:42050:1,2009-04-02T22:00:00Z,28.8425,-94.2433,2.0,205.0088408,26.68165662,-99999.0,'11111222,11111222,99999999' 
TABS,ioos:station:wmo:42050:1,2009-04-02T22:30:00Z,28.8425,-94.2433,2.0,210.5195991,28.33584656,-99999.0,'11111222,11111222,99999999' 
TABS,ioos:station:wmo:42050:1,2009-04-02T23:00:00Z,28.8425,-94.2433,2.0,211.9345978,31.87416038,-99999.0,'11111222,11111222,99999999' 
TABS,ioos:station:wmo:42050:1,2009-04-02T23:30:00Z,28.8425,-94.2433,2.0,214.7178203,29.98914637,-99999.0,'11111222,11111222,99999999' 
TABS,ioos:station:wmo:42050:1,2009-04-03T00:00:00Z,28.8425,-94.2433,2.0,207.4975643,32.1410283,-99999.0,'11111222,11111222,99999999' 
TABS,ioos:station:wmo:42050:1,2009-04-03T00:30:00Z,28.8425,-94.2433,2.0,214.2328711,33.64962556,-99999.0,'11111222,11111222,99999999' 
TABS,ioos:station:wmo:42050:1,2009-04-03T01:00:00Z,28.8425,-94.2433,2.0,216.9756912,33.4840574,-99999.0,'11111222,11111222,99999999' 
TABS,ioos:station:wmo:42050:1,2009-04-03T01:30:00Z,28.8425,-94.2433,2.0,215.0908701,32.66774097,-99999.0,'11111222,11111222,99999999' 
TABS,ioos:station:wmo:42050:1,2009-04-03T02:00:00Z,28.8425,-94.2433,2.0,217.5454029,30.52212312,-99999.0,'11111222,11111222,99999999' 
TABS,ioos:station:wmo:42050:1,2009-04-03T02:30:00Z,28.8425,-94.2433,2.0,220.9835732,32.8125479,-99999.0,'11111222,11111222,99999999' 
TABS,ioos:station:wmo:42050:1,2009-04-03T03:00:00Z,28.8425,-94.2433,2.0,223.212104,32.64179223,-99999.0,'11111222,11111222,99999999' 
TABS,ioos:station:wmo:42050:1,2009-04-03T03:30:00Z,28.8425,-94.2433,2.0,220.693501,30.2292987,-99999.0,'11111222,11111222,99999999' 
TABS,ioos:station:wmo:42050:1,2009-04-03T04:00:00Z,28.8425,-94.2433,2.0,221.9183632,29.20330461,-99999.0,'11111222,11111222,99999999' 
TABS,ioos:station:wmo:42050:1,2009-04-03T04:30:00Z,28.8425,-94.2433,2.0,225.0595231,27.08220449,-99999.0,'11111222,11111222,99999999' 
TABS,ioos:station:wmo:42050:1,2009-04-03T05:00:00Z,28.8425,-94.2433,2.0,229.0799325,26.93124765,-99999.0,'11111222,11111222,99999999' 
TABS,ioos:station:wmo:42050:1,2009-04-03T05:30:00Z,28.8425,-94.2433,2.0,231.5341057,26.71836073,-99999.0,'11111222,11111222,99999999' 
TABS,ioos:station:wmo:42050:1,2009-04-03T06:00:00Z,28.8425,-94.2433,2.0,244.768483,21.32445075,-99999.0,'11111222,11111222,99999999' 
TABS,ioos:station:wmo:42050:1,2009-04-03T06:30:00Z,28.8425,-94.2433,2.0,248.3848507,18.2428068,-99999.0,'11111222,11111222,99999999' 
TABS,ioos:station:wmo:42050:1,2009-04-03T07:00:00Z,28.8425,-94.2433,2.0,256.9591065,15.91031426,-99999.0,'11111222,11111222,99999999' 
TABS,ioos:station:wmo:42050:1,2009-04-03T07:30:00Z,28.8425,-94.2433,2.0,250.2665915,17.0300734,-99999.0,'11111222,11111222,99999999' 
TABS,ioos:station:wmo:42050:1,2009-04-03T08:00:00Z,28.8425,-94.2433,2.0,250.3103867,16.32442648,-99999.0,'11111222,11111222,99999999' 
TABS,ioos:station:wmo:42050:1,2009-04-03T08:30:00Z,28.8425,-94.2433,2.0,257.027675,15.14653756,-99999.0,'11111222,11111222,99999999' 
TABS,ioos:station:wmo:42050:1,2009-04-03T09:00:00Z,28.8425,-94.2433,2.0,271.0284543,12.26197374,-99999.0,'11111222,11111222,99999999' 
TABS,ioos:station:wmo:42050:1,2009-04-03T09:30:00Z,28.8425,-94.2433,2.0,276.5745179,8.385135658,-99999.0,'11133222,11111222,99999999' 
TABS,ioos:station:wmo:42050:1,2009-04-03T10:00:00Z,28.8425,-94.2433,2.0,268.962667,15.47253373,-99999.0,'11111222,11111222,99999999' 
TABS,ioos:station:wmo:42050:1,2009-04-03T10:30:00Z,28.8425,-94.2433,2.0,269.9596518,14.35000348,-99999.0,'11111222,11111222,99999999' 
TABS,ioos:station:wmo:42050:1,2009-04-03T11:00:00Z,28.8425,-94.2433,2.0,279.5666177,13.59910659,-99999.0,'11111222,11111222,99999999' 
TABS,ioos:station:wmo:42050:1,2009-04-03T11:30:00Z,28.8425,-94.2433,2.0,288.34505,12.04196828,-99999.0,'11111222,11111222,99999999' 
TABS,ioos:station:wmo:42050:1,2009-04-03T12:00:00Z,28.8425,-94.2433,2.0,314.2104014,8.719455258,-99999.0,'11133222,11111222,99999999' 
TABS,ioos:station:wmo:42050:1,2009-04-03T12:30:00Z,28.8425,-94.2433,2.0,303.64265,9.981833499,-99999.0,'11133222,11111222,99999999' 
TABS,ioos:station:wmo:42050:1,2009-04-03T13:00:00Z,28.8425,-94.2433,2.0,313.1942946,9.423343356,-99999.0,'11133222,11111222,99999999' 
TABS,ioos:station:wmo:42050:1,2009-04-03T13:30:00Z,28.8425,-94.2433,2.0,322.0460683,8.243476208,-99999.0,'11133222,11111222,99999999' 
TABS,ioos:station:wmo:42050:1,2009-04-03T14:00:00Z,28.8425,-94.2433,2.0,331.7932677,9.520614476,-99999.0,'11133222,11111222,99999999' 
TABS,ioos:station:wmo:42050:1,2009-04-03T14:30:00Z,28.8425,-94.2433,2.0,343.4269559,9.150136611,-99999.0,'11133222,11111222,99999999' 
TABS,ioos:station:wmo:42050:1,2009-04-03T15:00:00Z,28.8425,-94.2433,2.0,349.9039391,6.388935749,-99999.0,'11133222,11111222,99999999' 
TABS,ioos:station:wmo:42050:1,2009-04-03T15:30:00Z,28.8425,-94.2433,2.0,17.26862395,5.592065808,-99999.0,'11133222,11111222,99999999' 
TABS,ioos:station:wmo:42050:1,2009-04-03T16:00:00Z,28.8425,-94.2433,2.0,7.192360008,4.233308399,-99999.0,'11133222,11111222,99999999' 
TABS,ioos:station:wmo:42050:1,2009-04-03T16:30:00Z,28.8425,-94.2433,2.0,33.23184382,3.466987165,-99999.0,'11133222,11111222,99999999' 
TABS,ioos:station:wmo:42050:1,2009-04-03T17:00:00Z,28.8425,-94.2433,2.0,47.43674778,3.326409476,-99999.0,'11133222,11111222,99999999' 
TABS,ioos:station:wmo:42050:1,2009-04-03T17:30:00Z,28.8425,-94.2433,2.0,46.84254661,5.05842861,-99999.0,'11133222,11111222,99999999' 
TABS,ioos:station:wmo:42050:1,2009-04-03T18:00:00Z,28.8425,-94.2433,2.0,54.20450199,4.906862541,-99999.0,'11133222,11111222,99999999' 
TABS,ioos:station:wmo:42050:1,2009-04-03T18:30:00Z,28.8425,-94.2433,2.0,38.02519202,5.357088762,-99999.0,'11133222,11111222,99999999' 
TABS,ioos:station:wmo:42050:1,2009-04-03T19:00:00Z,28.8425,-94.2433,2.0,60.61105726,3.993995493,-99999.0,'11133222,11111222,99999999' 
TABS,ioos:station:wmo:42050:1,2009-04-03T19:30:00Z,28.8425,-94.2433,2.0,74.05464139,4.076861538,-99999.0,'11133222,11111222,99999999' 
TABS,ioos:station:wmo:42050:1,2009-04-03T20:00:00Z,28.8425,-94.2433,2.0,68.3852716,4.5607017,-99999.0,'11133222,11111222,99999999' 
TABS,ioos:station:wmo:42050:1,2009-04-03T20:30:00Z,28.8425,-94.2433,2.0,59.34048102,6.138020854,-99999.0,'11133222,11111222,99999999' 
TABS,ioos:station:wmo:42050:1,2009-04-03T21:00:00Z,28.8425,-94.2433,2.0,46.35685371,5.37551858,-99999.0,'11133222,11111222,99999999' 
TABS,ioos:station:wmo:42050:1,2009-04-03T21:30:00Z,28.8425,-94.2433,2.0,46.89754922,5.766081859,-99999.0,'11133222,11111222,99999999' 
TABS,ioos:station:wmo:42050:1,2009-04-03T22:00:00Z,28.8425,-94.2433,2.0,70.96971732,7.912445892,-99999.0,'11133222,11111222,99999999' 
TABS,ioos:station:wmo:42050:1,2009-04-03T22:30:00Z,28.8425,-94.2433,2.0,85.87434457,6.115848265,-99999.0,'11133222,11111222,99999999' 
TABS,ioos:station:wmo:42050:1,2009-04-03T23:00:00Z,28.8425,-94.2433,2.0,108.0365647,5.458223154,-99999.0,'11133222,11111222,99999999' 
TABS,ioos:station:wmo:42050:1,2009-04-03T23:30:00Z,28.8425,-94.2433,2.0,141.0219963,6.47037866,-99999.0,'11133222,11111222,99999999' 
TABS,ioos:station:wmo:42050:1,2009-04-04T00:00:00Z,28.8425,-94.2433,2.0,159.7645657,5.43547606,-99999.0,'11133222,11111222,99999999' 
TABS,ioos:station:wmo:42050:1,2009-04-04T00:30:00Z,28.8425,-94.2433,2.0,172.7628844,6.985649576,-99999.0,'11133222,11111222,99999999' 
TABS,ioos:station:wmo:42050:1,2009-04-04T01:00:00Z,28.8425,-94.2433,2.0,190.3841382,8.37721314,-99999.0,'11133222,11111222,99999999' 
TABS,ioos:station:wmo:42050:1,2009-04-04T01:30:00Z,28.8425,-94.2433,2.0,170.8454172,4.588442001,-99999.0,'11133222,11111222,99999999' 
TABS,ioos:station:wmo:42050:1,2009-04-04T02:00:00Z,28.8425,-94.2433,2.0,164.2626832,3.023325983,-99999.0,'11133222,11111222,99999999' 
TABS,ioos:station:wmo:42050:1,2009-04-04T02:30:00Z,28.8425,-94.2433,2.0,178.1581204,3.111607302,-99999.0,'11133222,11111222,99999999' 
TABS,ioos:station:wmo:42050:1,2009-04-04T03:00:00Z,28.8425,-94.2433,2.0,161.7621142,3.674588412,-99999.0,'11133222,11111222,99999999' 
TABS,ioos:station:wmo:42050:1,2009-04-04T03:30:00Z,28.8425,-94.2433,2.0,234.5826066,1.104355015,-99999.0,'11133222,11111222,99999999' 
TABS,ioos:station:wmo:42050:1,2009-04-04T04:00:00Z,28.8425,-94.2433,2.0,215.0656101,2.54125953,-99999.0,'11133222,11111222,99999999' 
TABS,ioos:station:wmo:42050:1,2009-04-04T04:30:00Z,28.8425,-94.2433,2.0,238.0735726,1.531698404,-99999.0,'11133222,11111222,99999999' 
TABS,ioos:station:wmo:42050:1,2009-04-04T05:00:00Z,28.8425,-94.2433,2.0,234.4858675,2.788781096,-99999.0,'11133222,11111222,99999999' 
TABS,ioos:station:wmo:42050:1,2009-04-04T05:30:00Z,28.8425,-94.2433,2.0,275.9000322,3.015974138,-99999.0,'11133222,11111222,99999999' 
TABS,ioos:station:wmo:42050:1,2009-04-04T06:00:00Z,28.8425,-94.2433,2.0,268.121706,1.220655562,-99999.0,'11133222,11111222,99999999' 
TABS,ioos:station:wmo:42050:1,2009-04-04T06:30:00Z,28.8425,-94.2433,2.0,293.8190157,2.426684982,-99999.0,'11133222,11111222,99999999' 
TABS,ioos:station:wmo:42050:1,2009-04-04T07:00:00Z,28.8425,-94.2433,2.0,272.8443031,4.635709223,-99999.0,'11133222,11111222,99999999' 
TABS,ioos:station:wmo:42050:1,2009-04-04T07:30:00Z,28.8425,-94.2433,2.0,273.0319377,3.214498406,-99999.0,'11133222,11111222,99999999' 
TABS,ioos:station:wmo:42050:1,2009-04-04T08:00:00Z,28.8425,-94.2433,2.0,276.3080126,5.825263943,-99999.0,'11133222,11111222,99999999' 
TABS,ioos:station:wmo:42050:1,2009-04-04T08:30:00Z,28.8425,-94.2433,2.0,247.9441908,4.607146622,-99999.0,'11133222,11111222,99999999' 
TABS,ioos:station:wmo:42050:1,2009-04-04T09:00:00Z,28.8425,-94.2433,2.0,258.3531569,9.015614233,-99999.0,'11133222,11111222,99999999' 
TABS,ioos:station:wmo:42050:1,2009-04-04T09:30:00Z,28.8425,-94.2433,2.0,265.502438,7.141988519,-99999.0,'11133222,11111222,99999999' 
TABS,ioos:station:wmo:42050:1,2009-04-04T10:00:00Z,28.8425,-94.2433,2.0,276.7234509,7.602275975,-99999.0,'11133222,11111222,99999999' 
TABS,ioos:station:wmo:42050:1,2009-04-04T10:30:00Z,28.8425,-94.2433,2.0,244.0355713,7.674607482,-99999.0,'11133222,11111222,99999999' 
TABS,ioos:station:wmo:42050:1,2009-04-04T11:00:00Z,28.8425,-94.2433,2.0,226.821889,8.227812589,-99999.0,'11133222,11111222,99999999' 
TABS,ioos:station:wmo:42050:1,2009-04-04T11:30:00Z,28.8425,-94.2433,2.0,228.3064231,6.374574496,-99999.0,'11133222,11111222,99999999' 
TABS,ioos:station:wmo:42050:1,2009-04-04T12:00:00Z,28.8425,-94.2433,2.0,233.8029694,6.46844649,-99999.0,'11133222,11111222,99999999' 
TABS,ioos:station:wmo:42050:1,2009-04-04T12:30:00Z,28.8425,-94.2433,2.0,258.4054632,14.62848249,-99999.0,'11111222,11111222,99999999' 
TABS,ioos:station:wmo:42050:1,2009-04-04T13:00:00Z,28.8425,-94.2433,2.0,251.8407948,13.12360469,-99999.0,'11111222,11111222,99999999' 
TABS,ioos:station:wmo:42050:1,2009-04-04T13:30:00Z,28.8425,-94.2433,2.0,254.5789133,13.04980076,-99999.0,'11111222,11111222,99999999' 
TABS,ioos:station:wmo:42050:1,2009-04-04T14:00:00Z,28.8425,-94.2433,2.0,249.3308693,10.70928569,-99999.0,'11111222,11111222,99999999' 
TABS,ioos:station:wmo:42050:1,2009-04-04T14:30:00Z,28.8425,-94.2433,2.0,232.8487367,9.786117718,-99999.0,'11133222,11111222,99999999' 
TABS,ioos:station:wmo:42050:1,2009-04-04T15:00:00Z,28.8425,-94.2433,2.0,279.4351485,13.66484541,-99999.0,'11111222,11111222,99999999' 
TABS,ioos:station:wmo:42050:1,2009-04-04T15:30:00Z,28.8425,-94.2433,2.0,269.4709614,14.0905997,-99999.0,'11111222,11111222,99999999' 
TABS,ioos:station:wmo:42050:1,2009-04-04T16:00:00Z,28.8425,-94.2433,2.0,265.3670945,15.60096471,-99999.0,'11111222,11111222,99999999' 